Starlink 5916

operational
NORAD ID: 55988 Int'l Des: 2023-042 Owner: SPXS Country: US Constellation: starlink
LEOCIRCULAR

Über Starlink 5916

Beschreibung wird geladen...

Live-Position

3D-Globus wird geladen...

Nächste Überflüge

Höhenverlauf

Altitude vs Time

uPlot chart will show altitude changes over time

Zweizeiliger Elementsatz

1 55988U 23042C 25303.66943175 .00000262 00000-0 34448-4 0 9997
2 55988 43.0053 42.4710 0001433 270.1930 89.8748 15.02546806143350
Epoch: 30. Okt. 2025 • Age: 12 hours

Aktueller Status

Höhe 569.5 km
Geschwindigkeit 7.58 km/s
Subsatellitenpunkt -38.37°S, 125.8°W
Startdatum 24. März 2023
Alter 2.6 years
Typ internet

Technische Details

Klassifizierung Payload
Masse 305.00 kg
Trockenmasse 290.00 kg
Gesamtmasse 305.00 kg
Länge 0.20 m
Durchmesser 2.80 m
Spannweite 9.00 m
Form Box + pan
Hersteller SPXS
Bus-Typ Starlink
Phasenstatus In Orbit
Besitzer/Staat SPXS/US

Große Konstellationen

Loading constellations...